Location: Fredericksburg
(30.2750°N, 98.8720°W)
Time: 20:38:38
(UTC-05:00)

Amateur Radio Satellites - All Passes

Search period start: 31 May 2016 20:08
Search period end: 01 June 2016 20:08
Location: Fredericksburg, 30.2750°N, 98.8720°W

Satellite Date Start Highest point End Downlink Frequencies (MHz)
Time Altitude Azimuth
BRITE-PL 31 May 20:11:05 20:15:29 23° 265° (W) 20:19:55 437.365/2234.400
GOMX 1 31 May 20:11:15 20:16:29 45° 261° (W) 20:21:39 467.674
CUBESAT XI-V 31 May 20:13:53 20:16:17 14° 292° (WNW) 20:18:40 437.345
NOAA 18 31 May 20:18:19 20:21:55 18° 264° (W) 20:25:32 137.9125
AUBIESAT-1 31 May 20:18:54 20:22:27 29° 70° (ENE) 20:25:47 437.475
CUTE-I 31 May 20:27:39 20:31:02 17° 265° (W) 20:34:26 437.470
M-CUBED/EXP-1 PRIME 31 May 20:29:11 20:33:15 52° 72° (ENE) 20:37:02 437.505
CINEMA 3 31 May 20:34:36 20:39:02 41° 75° (ENE) 20:43:17 145.822/145.860
DOVE 4 31 May 20:37:08 20:42:11 50° 260° (W) 20:47:04 437.250
SEEDS 31 May 20:44:30 20:48:12 32° 74° (ENE) 20:51:56 437.485
PCSat 31 May 20:45:31 20:49:01 18° 255° (WSW) 20:52:29 145.827
ISS 31 May 20:50:26 20:53:00 21° 322° (NW) 20:55:33 145.825
CANX-2 31 May 20:50:43 20:54:52 68° 77° (ENE) 20:59:03 2200.000
O/OREOS (USA 219) 31 May 20:51:12 20:54:24 19° 259° (W) 20:57:35 437.305
CUBEBUG 2 31 May 20:54:25 20:57:23 18° 71° (ENE) 21:00:18 437.445
RS-15 31 May 20:59:53 21:04:14 12° 334° (NNW) 21:08:39 29.354- 29.394
BEESAT 2 31 May 21:12:17 21:16:16 86° 243° (WSW) 21:20:13 435.950
UWE-3 31 May 21:12:57 21:16:03 20° 72° (ENE) 21:19:07 435.000/436.395/437.385
CUTE 1.7 + AOD 2 31 May 21:17:04 21:21:12 63° 259° (W) 21:25:24 437.475
AAUSAT CUBESAT 2 31 May 21:19:29 21:23:26 47° 75° (ENE) 21:27:25 437.432
COMPASS 1 31 May 21:21:28 21:25:34 67° 76° (ENE) 21:29:42 437.405
HO-68 31 May 21:21:58 21:29:02 66° 257° (WSW) 21:36:09 435.675
PRISM 31 May 21:22:48 21:26:22 28° 98° (E) 21:29:55 437.425
PHONESAT 2.4 31 May 21:33:58 21:36:35 24° 341° (NNW) 21:39:13 2401.200-2431.200
GONETS M04 31 May 21:38:10 21:46:09 40° 88° (E) 21:54:05
BEESAT 3 31 May 21:38:46 21:41:39 20° 250° (WSW) 21:44:31 437.485
Oscar 11 31 May 21:40:09 21:43:57 31° 73° (ENE) 21:47:44 145.826/435.025
AIST 1 31 May 21:44:38 21:49:00 67° 277° (W) 21:53:24
STRAND 1 31 May 21:45:13 21:49:24 26° 290° (WNW) 21:53:34 437.568
AUBIESAT-1 31 May 21:54:29 21:56:51 15° 258° (WSW) 21:59:09 437.475
ZACube-1 31 May 22:03:19 22:07:27 54° 76° (ENE) 22:11:31 437.345
Cosmos 2499 31 May 22:12:09 22:18:33 36° 87° (E) 22:25:21 435.465 / 435.565
CUSAT 1 31 May 22:12:19 22:17:09 20° 67° (ENE) 22:21:20 437.405
CINEMA 3 31 May 22:13:47 22:16:12 14° 265° (W) 22:18:35 145.822/145.860
SEEDS 31 May 22:21:41 22:23:55 14° 266° (W) 22:26:11 437.485
AIST 2 31 May 22:23:10 22:26:45 28° 58° (ENE) 22:30:19 435.215
CUBEBUG 2 31 May 22:30:04 22:33:47 27° 262° (W) 22:37:27 437.445
FUNcube-1 31 May 22:38:47 22:42:54 54° 260° (W) 22:46:58 145.935
DELFI C3 31 May 22:45:31 22:49:27 86° 259° (W) 22:53:27 145.870
DANDE 31 May 22:48:02 22:54:12 24° 69° (ENE) 22:59:39 436.750
UWE-3 31 May 22:48:51 22:52:20 24° 263° (W) 22:55:47 435.000/436.395/437.385
ANTELSAT 31 May 22:53:14 22:55:34 14° 95° (E) 22:57:53 437.575/2403.000
PRISM 31 May 22:58:44 23:01:25 17° 290° (WNW) 23:04:05 437.425
SO-50 31 May 23:03:12 23:07:13 26° 110° (ESE) 23:11:15 436.795
HUMSAT D 31 May 23:06:07 23:10:09 67° 76° (ENE) 23:14:11 437.325/437.525
PHONESAT 2.4 31 May 23:12:31 23:14:01 13° 358° (N) 23:15:31 2401.200-2431.200
Oscar 11 31 May 23:17:29 23:20:04 16° 265° (W) 23:22:39 145.826/435.025
GONETS M04 31 May 23:35:02 23:42:51 35° 283° (WNW) 23:50:41
DX 1 31 May 23:44:20 23:46:58 16° 69° (ENE) 23:49:36 434.975-435.025
CUBEBUG 1 31 May 23:45:48 23:49:05 21° 71° (ENE) 23:52:24 437.445
UNISAT 6 31 May 23:46:58 23:51:19 68° 102° (ESE) 23:55:44 437.425
50 SAT 31 May 23:47:09 23:49:47 19° 72° (ENE) 23:52:26 437.505
TIGRISAT 31 May 23:52:50 23:57:11 76° 102° (ESE) 00:01:37 435.000
CUSAT 1 31 May 23:53:08 23:59:49 50° 269° (W) 00:05:04 437.405
AIST 2 01 Jun 00:02:09 00:05:00 18° 251° (WSW) 00:07:50 435.215
ESTCUBE 1 01 Jun 00:02:41 00:07:02 51° 75° (ENE) 00:11:26 437.505/2401.250
VELOX 1 01 Jun 00:04:45 00:08:46 34° 73° (ENE) 00:12:48 145.980
Cosmos 2499 01 Jun 00:05:14 00:11:33 32° 284° (WNW) 00:18:17 435.465 / 435.565
QB50P1 01 Jun 00:10:09 00:12:58 17° 96° (E) 00:15:46 145.935-145.965
POPSAT HIP 1 01 Jun 00:10:16 00:13:03 17° 96° (E) 00:15:48 437.405
QB50P2 01 Jun 00:13:53 00:17:04 21° 97° (E) 00:20:14 145.880/145.840
POLYITAN 1 01 Jun 00:16:20 00:19:33 21° 97° (E) 00:22:46 437.675
UKube-1 01 Jun 00:23:00 00:26:58 36° 73° (ENE) 00:30:56 .
NANOSAT C BR1 01 Jun 00:25:12 00:28:41 25° 97° (E) 00:32:10 145.865
ANTELSAT 01 Jun 00:28:18 00:32:18 36° 286° (WNW) 00:36:23 437.575/2403.000
DANDE 01 Jun 00:29:42 00:37:35 57° 268° (W) 00:44:05 436.750
AISAT 01 Jun 00:40:59 00:45:27 79° 259° (WSW) 00:49:55 437.250
SO-50 01 Jun 00:43:20 00:47:33 29° 304° (NW) 00:51:48 436.795
PHONESAT 2.4 01 Jun 00:49:14 00:51:32 18° 15° (NNE) 00:53:48 2401.200-2431.200
BUGSAT 1 01 Jun 00:59:21 01:02:43 26° 97° (E) 01:06:05 437.445
DUCHIFAT 1 01 Jun 01:00:50 01:05:00 72° 101° (E) 01:09:10 145.980
DX 1 01 Jun 01:18:51 01:22:49 34° 261° (W) 01:26:49 434.975-435.025
50 SAT 01 Jun 01:20:55 01:23:22 17° 264° (W) 01:25:50 437.505
CUBEBUG 1 01 Jun 01:21:28 01:25:10 26° 263° (W) 01:28:52 437.445
SPROUT 01 Jun 01:25:25 01:29:41 66° 259° (W) 01:33:56 437.525
TISAT 1 01 Jun 01:32:01 01:35:47 33° 73° (ENE) 01:39:34 437.305
RS-15 01 Jun 01:33:24 01:44:02 32° 48° (NE) 01:54:32 29.354- 29.394
VELOX 1 01 Jun 01:42:34 01:45:16 16° 265° (W) 01:47:57 145.980
ESTCUBE 1 01 Jun 01:43:15 01:44:03 10° 267° (W) 01:44:50 437.505/2401.250
QB50P1 01 Jun 01:45:10 01:48:41 27° 288° (WNW) 01:52:13 145.935-145.965
POPSAT HIP 1 01 Jun 01:45:14 01:48:46 27° 288° (WNW) 01:52:19 437.405
QB50P2 01 Jun 01:49:27 01:52:44 23° 288° (WNW) 01:56:02 145.880/145.840
POLYITAN 1 01 Jun 01:51:57 01:55:13 22° 289° (WNW) 01:58:28 437.675
UKube-1 01 Jun 02:00:51 02:03:04 14° 265° (W) 02:05:17 .
NANOSAT C BR1 01 Jun 02:01:18 02:04:12 18° 289° (WNW) 02:07:05 145.865
JAS-2 01 Jun 02:11:02 02:17:59 63° 100° (E) 02:24:04 435.910
PHONESAT 2.4 01 Jun 02:25:26 02:28:33 85° 29° (NNE) 02:31:40 2401.200-2431.200
Oscar 19 01 Jun 02:25:33 02:30:13 35° 98° (E) 02:34:51 437.125/150
BUGSAT 1 01 Jun 02:35:20 02:37:51 16° 290° (WNW) 02:40:23 437.445
SWISSCUBE 01 Jun 02:56:54 03:01:34 62° 75° (ENE) 03:06:16 437.505
Cosmos 2491 01 Jun 02:57:41 03:02:09 15° 81° (E) 03:06:36 435.465 / 435.565
ITUPSAT 1 01 Jun 03:05:44 03:10:27 68° 76° (ENE) 03:15:11 437.325
TISAT 1 01 Jun 03:09:09 03:11:28 14° 265° (W) 03:13:46 437.305
ITAMSAT 1 01 Jun 03:19:12 03:22:21 16° 95° (E) 03:25:30 435.822/435.867
ISS 01 Jun 03:22:05 03:24:48 24° 40° (NE) 03:27:30 145.825
BEESAT 01 Jun 03:25:59 03:30:41 68° 258° (WSW) 03:35:26 436.000
Gurwin Techsat 1B 01 Jun 03:27:18 03:32:33 61° 101° (E) 03:37:47 435.225
RS-15 01 Jun 03:45:11 03:57:26 71° 248° (WSW) 04:09:27 29.354- 29.394
Cosmos 2504 01 Jun 03:51:21 03:56:24 16° 71° (ENE) 04:01:30 435.465 / 435.565
MOZHAYETS 4 01 Jun 03:54:44 03:57:44 18° 69° (ENE) 04:00:43
JAS-2 01 Jun 03:57:42 04:02:08 18° 298° (WNW) 04:06:18 435.910
YUBILEINY 01 Jun 03:59:52 04:08:40 75° 84° (E) 04:17:28 435.215
PHONESAT 2.4 01 Jun 04:04:35 04:04:55 10° 221° (SW) 04:05:15 2401.200-2431.200
Oscar 19 01 Jun 04:05:29 04:09:15 21° 291° (WNW) 04:12:59 437.125/150
JUGNU 01 Jun 04:20:39 04:24:58 21° 167° (SSE) 04:29:19 437.505
AO-85 01 Jun 04:29:38 04:33:57 25° 109° (ESE) 04:38:17 145.980
KKS-1 01 Jun 04:38:08 04:42:36 83° 77° (ENE) 04:47:05 437.445
Cosmos 2491 01 Jun 04:48:58 04:57:49 82° 275° (W) 05:06:41 435.465 / 435.565
ITAMSAT 1 01 Jun 04:56:59 05:01:57 45° 287° (WNW) 05:06:54 435.822/435.867
ISS 01 Jun 04:58:38 05:01:07 20° 232° (SW) 05:03:35 145.825
STARS 01 Jun 05:00:14 05:04:36 72° 77° (ENE) 05:08:59 437.465
Gurwin Techsat 1B 01 Jun 05:09:32 05:11:55 13° 295° (WNW) 05:14:17 435.225
AO-7 01 Jun 05:20:17 05:28:41 78° 106° (ESE) 05:37:03 29.400- 29.500
MOZHAYETS 4 01 Jun 05:30:31 05:34:35 32° 262° (W) 05:38:42
CUBESAT XI-V 01 Jun 05:32:59 05:36:37 23° 71° (ENE) 05:40:16 437.345
Cosmos 2504 01 Jun 05:41:49 05:50:32 84° 265° (W) 05:59:25 435.465 / 435.565
YUBILEINY 01 Jun 05:59:16 06:04:26 17° 278° (W) 06:09:37 435.215
HORYU 2 01 Jun 06:01:27 06:05:44 47° 100° (E) 06:10:01 437.375
RS-15 01 Jun 06:05:02 06:07:44 11° 263° (W) 06:10:25 29.354- 29.394
JUGNU 01 Jun 06:08:23 06:13:29 30° 177° (S) 06:18:36 437.505
AO-85 01 Jun 06:09:15 06:14:15 37° 302° (WNW) 06:19:14 145.980
SRMSAT 01 Jun 06:23:44 06:28:00 20° 166° (SSE) 06:32:17 437.500
BRITE-PL 01 Jun 06:44:44 06:47:34 16° 93° (E) 06:50:16 437.365/2234.400
Cosmos 2491 01 Jun 06:52:51 06:55:49 12° 293° (WNW) 06:58:48 435.465 / 435.565
NOAA 18 01 Jun 07:04:04 07:08:53 31° 98° (E) 07:13:41 137.9125
CUTE-I 01 Jun 07:09:02 07:13:37 28° 98° (E) 07:18:11 437.470
CUBESAT XI-V 01 Jun 07:09:55 07:13:48 26° 263° (W) 07:17:44 437.345
AO-7 01 Jun 07:15:04 07:20:31 20° 301° (WNW) 07:25:59 29.400- 29.500
STRAND 1 01 Jun 07:16:43 07:20:39 23° 69° (ENE) 07:24:35 437.568
Cosmos 2504 01 Jun 07:39:40 07:42:39 12° 280° (W) 07:45:39 435.465 / 435.565
HORYU 2 01 Jun 07:40:14 07:41:49 12° 293° (WNW) 07:43:25 437.375
LilacSat-2 01 Jun 07:40:18 07:44:03 62° 101° (E) 07:47:49 437.200
NOAA 15 01 Jun 07:40:21 07:45:39 89° 288° (WNW) 07:50:55 137.62
PCSat 01 Jun 07:56:34 07:58:54 13° 103° (ESE) 08:01:15 145.827
JUGNU 01 Jun 07:57:04 08:02:03 28° 187° (S) 08:07:02 437.505
GONETS M04 01 Jun 07:58:26 08:02:05 13° 68° (ENE) 08:05:41
AIST 1 01 Jun 07:58:55 08:01:40 16° 77° (ENE) 08:04:24
Cubesat XI-IV 01 Jun 08:03:42 08:09:04 78° 284° (WNW) 08:14:26 437.490
SRMSAT 01 Jun 08:11:35 08:16:41 29° 176° (S) 08:21:48 437.500
GOMX 1 01 Jun 08:19:36 08:24:02 88° 283° (WNW) 08:28:14 467.674
BRITE-PL 01 Jun 08:21:52 08:26:11 34° 288° (WNW) 08:30:11 437.365/2234.400
CINEMA 3 01 Jun 08:36:34 08:38:36 13° 95° (E) 08:40:39 145.822/145.860
DOVE 4 01 Jun 08:42:17 08:46:29 71° 101° (E) 08:50:35 437.250
CANX-2 01 Jun 08:42:23 08:45:23 18° 95° (E) 08:48:23 2200.000
NOAA 18 01 Jun 08:44:50 08:49:21 27° 291° (WNW) 08:53:52 137.9125
CUTE-I 01 Jun 08:49:02 08:53:30 27° 290° (WNW) 08:57:58 437.470
STRAND 1 01 Jun 08:55:08 08:59:35 31° 262° (W) 09:04:06 437.568
HO-68 01 Jun 08:56:24 09:02:47 34° 99° (E) 09:09:09 435.675
CUTE 1.7 + AOD 2 01 Jun 09:07:51 09:11:43 33° 98° (E) 09:15:35 437.475
AAUSAT CUBESAT 2 01 Jun 09:09:31 09:11:06 12° 94° (E) 09:12:41 437.432
COMPASS 1 01 Jun 09:11:09 09:13:54 17° 95° (E) 09:16:38 437.405
O/OREOS (USA 219) 01 Jun 09:17:06 09:21:40 86° 283° (WNW) 09:26:13 437.305
SO-50 01 Jun 09:19:45 09:24:18 55° 60° (ENE) 09:28:42 436.795
AIST 1 01 Jun 09:35:35 09:39:14 27° 270° (W) 09:42:50
PCSat 01 Jun 09:36:22 09:41:41 60° 296° (WNW) 09:47:04 145.827
AUBIESAT-1 01 Jun 09:36:50 09:40:05 51° 106° (ESE) 09:43:27 437.475
PRISM 01 Jun 09:40:57 09:44:57 49° 260° (W) 09:49:01 437.425
JUGNU 01 Jun 09:46:48 09:50:32 17° 196° (SSW) 09:54:18 437.505
BEESAT 3 01 Jun 09:47:06 09:49:29 16° 109° (ESE) 09:51:51 437.485
M-CUBED/EXP-1 PRIME 01 Jun 09:48:13 09:51:29 75° 288° (WNW) 09:54:51 437.505
GONETS M04 01 Jun 09:51:12 09:59:56 88° 84° (E) 10:08:38
ZACube-1 01 Jun 09:58:14 10:00:56 16° 95° (E) 10:03:39 437.345
SRMSAT 01 Jun 10:00:23 10:05:25 28° 186° (S) 10:10:25 437.500
Cosmos 2499 01 Jun 10:00:51 10:09:37 65° 83° (E) 10:18:21 435.465 / 435.565
SEEDS 01 Jun 10:09:05 10:13:15 56° 284° (WNW) 10:17:24 437.485
CINEMA 3 01 Jun 10:12:04 10:15:47 33° 286° (WNW) 10:19:34 145.822/145.860
CANX-2 01 Jun 10:17:34 10:21:10 27° 288° (WNW) 10:24:46 2200.000
CUBEBUG 2 01 Jun 10:25:33 10:29:46 89° 276° (W) 10:34:06 437.445
DELFI C3 01 Jun 10:29:47 10:32:38 18° 96° (E) 10:35:28 145.870
FUNcube-1 01 Jun 10:32:12 10:36:13 41° 99° (E) 10:40:19 145.935
UNISAT 6 01 Jun 10:40:39 10:44:22 28° 73° (ENE) 10:48:02 437.425
AAUSAT CUBESAT 2 01 Jun 10:42:46 10:46:41 38° 286° (WNW) 10:50:34 437.432
UWE-3 01 Jun 10:42:54 10:47:09 82° 281° (W) 10:51:29 435.000/436.395/437.385
HO-68 01 Jun 10:43:58 10:50:21 36° 292° (WNW) 10:56:46 435.675
CUTE 1.7 + AOD 2 01 Jun 10:44:44 10:47:15 15° 290° (WNW) 10:49:45 437.475
COMPASS 1 01 Jun 10:45:48 10:49:25 28° 287° (WNW) 10:53:01 437.405
TIGRISAT 01 Jun 10:46:14 10:50:03 31° 73° (ENE) 10:53:49 435.000
HUMSAT D 01 Jun 10:56:09 10:58:55 17° 95° (E) 11:01:42 437.325/437.525
BEESAT 2 01 Jun 10:58:37 11:02:33 69° 116° (ESE) 11:06:30 435.950
SO-50 01 Jun 11:03:31 11:04:10 10° 254° (WSW) 11:04:51 436.795
CUSAT 1 01 Jun 11:05:12 11:10:38 29° 86° (E) 11:16:56 437.405
Oscar 11 01 Jun 11:08:26 11:12:41 55° 284° (WNW) 11:16:56 145.826/435.025
ANTELSAT 01 Jun 11:20:57 11:25:18 87° 258° (WSW) 11:29:36 437.575/2403.000
BEESAT 3 01 Jun 11:23:27 11:26:53 28° 302° (WNW) 11:30:20 437.485
ZACube-1 01 Jun 11:33:28 11:37:11 30° 287° (WNW) 11:40:59 437.345
DUCHIFAT 1 01 Jun 11:47:34 11:50:57 24° 72° (ENE) 11:54:20 145.980
DANDE 01 Jun 11:48:22 11:53:04 28° 85° (E) 11:58:50 436.750
SRMSAT 01 Jun 11:50:09 11:54:03 18° 195° (SSW) 11:57:57 437.500
GONETS M04 01 Jun 11:51:58 11:55:28 13° 280° (W) 11:59:01
Cosmos 2499 01 Jun 11:55:40 12:01:55 22° 277° (W) 12:08:13 435.465 / 435.565
ESTCUBE 1 01 Jun 12:02:02 12:05:02 17° 95° (E) 12:08:00 437.505/2401.250
DELFI C3 01 Jun 12:04:10 12:07:23 23° 288° (WNW) 12:10:35 145.870
FUNcube-1 01 Jun 12:10:18 12:12:05 12° 291° (WNW) 12:13:53 145.935
AIST 2 01 Jun 12:15:31 12:18:46 23° 110° (ESE) 12:22:02 435.215
JAS-2 01 Jun 12:17:15 12:22:01 18° 62° (ENE) 12:26:54 435.910
UNISAT 6 01 Jun 12:18:09 12:21:02 17° 264° (W) 12:23:54 437.425
TIGRISAT 01 Jun 12:24:06 12:26:44 16° 265° (W) 12:29:20 435.000
HUMSAT D 01 Jun 12:30:55 12:34:30 28° 287° (WNW) 12:38:07 437.325/437.525
QB50P1 01 Jun 12:30:56 12:35:10 80° 259° (W) 12:39:24 145.935-145.965
POPSAT HIP 1 01 Jun 12:31:04 12:35:18 81° 258° (WSW) 12:39:32 437.405
QB50P2 01 Jun 12:35:14 12:39:26 66° 259° (W) 12:43:38 145.880/145.840
AISAT 01 Jun 12:37:21 12:41:12 30° 98° (E) 12:45:02 437.250
POLYITAN 1 01 Jun 12:37:45 12:41:56 64° 258° (WSW) 12:46:07 437.675
CUSAT 1 01 Jun 12:46:13 12:52:18 42° 284° (WNW) 12:59:35 437.405
NANOSAT C BR1 01 Jun 12:46:22 12:50:29 52° 260° (W) 12:54:35 145.865
50 SAT 01 Jun 12:54:26 12:58:07 56° 101° (E) 13:01:46 437.505
DX 1 01 Jun 13:12:17 13:16:35 63° 101° (ESE) 13:20:51 434.975-435.025
CUBEBUG 1 01 Jun 13:14:59 13:19:20 89° 310° (NW) 13:23:38 437.445
SPROUT 01 Jun 13:17:24 13:21:12 31° 98° (E) 13:24:59 437.525
BUGSAT 1 01 Jun 13:17:41 13:21:47 52° 259° (W) 13:25:51 437.445
DUCHIFAT 1 01 Jun 13:23:29 13:26:33 20° 264° (W) 13:29:37 145.980
DANDE 01 Jun 13:30:21 13:35:33 36° 287° (WNW) 13:42:06 436.750
VELOX 1 01 Jun 13:36:31 13:40:48 51° 285° (WNW) 13:45:02 145.980
Oscar 19 01 Jun 13:36:53 13:41:19 29° 70° (ENE) 13:45:44 437.125/150
ESTCUBE 1 01 Jun 13:37:48 13:41:50 32° 287° (WNW) 13:45:49 437.505/2401.250
UKube-1 01 Jun 13:51:21 13:55:33 51° 285° (WNW) 13:59:42 .
AIST 2 01 Jun 13:53:52 13:57:07 22° 304° (NW) 14:00:24 435.215
JAS-2 01 Jun 13:58:41 14:06:00 78° 258° (WSW) 14:13:53 435.910
AISAT 01 Jun 14:14:29 14:17:25 18° 290° (WNW) 14:20:21 437.250
ITAMSAT 1 01 Jun 14:32:26 14:35:06 14° 66° (ENE) 14:37:46 435.822/435.867
Gurwin Techsat 1B 01 Jun 14:42:36 14:47:45 54° 74° (ENE) 14:52:56 435.225
AO-85 01 Jun 14:47:07 14:51:23 42° 59° (ENE) 14:55:17 145.980
SPROUT 01 Jun 14:54:19 14:56:50 16° 290° (WNW) 14:59:23 437.525
TISAT 1 01 Jun 14:56:38 15:00:44 58° 284° (WNW) 15:04:48 437.305
YUBILEINY 01 Jun 15:01:54 15:06:14 15° 81° (E) 15:10:34 435.215
SWISSCUBE 01 Jun 15:03:23 15:07:21 25° 97° (E) 15:11:17 437.505
Cosmos 2491 01 Jun 15:07:10 15:15:08 38° 78° (ENE) 15:23:01 435.465 / 435.565
ITUPSAT 1 01 Jun 15:12:27 15:16:34 28° 98° (E) 15:20:40 437.325
Oscar 19 01 Jun 15:16:16 15:20:31 25° 263° (W) 15:24:46 437.125/150
BEESAT 01 Jun 15:31:51 15:36:30 48° 100° (E) 15:41:06 436.000
RS-15 01 Jun 15:50:40 15:59:49 31° 104° (ESE) 16:09:18 29.354- 29.394
JAS-2 01 Jun 15:51:34 15:51:57 10° 272° (W) 15:52:20 435.910
ITAMSAT 1 01 Jun 16:09:02 16:14:03 53° 259° (W) 16:19:07 435.822/435.867
AO-7 01 Jun 16:12:38 16:20:47 64° 70° (ENE) 16:28:57 29.400- 29.500
Gurwin Techsat 1B 01 Jun 16:25:23 16:27:55 13° 266° (W) 16:30:28 435.225
Cosmos 2504 01 Jun 16:26:41 16:28:35 11° 80° (E) 16:30:29 435.465 / 435.565
AO-85 01 Jun 16:29:51 16:31:14 11° 255° (WSW) 16:32:36 145.980
KKS-1 01 Jun 16:35:26 16:39:03 24° 97° (E) 16:42:39 437.445
SWISSCUBE 01 Jun 16:41:06 16:44:59 25° 290° (WNW) 16:48:50 437.505
ITUPSAT 1 01 Jun 16:50:28 16:54:11 23° 290° (WNW) 16:57:54 437.325
YUBILEINY 01 Jun 16:53:11 17:01:53 82° 276° (W) 17:10:36 435.215
HORYU 2 01 Jun 16:54:33 16:57:55 22° 70° (ENE) 17:01:17 437.375
STARS 01 Jun 16:56:13 16:59:26 20° 96° (E) 17:02:39 437.465
Cosmos 2491 01 Jun 17:04:03 17:11:45 37° 273° (W) 17:19:26 435.465 / 435.565
BEESAT 01 Jun 17:11:30 17:13:49 14° 293° (WNW) 17:16:06 436.000
MOZHAYETS 4 01 Jun 17:30:34 17:35:14 90° 110° (ESE) 17:39:52
BRITE-PL 01 Jun 17:49:29 17:52:23 14° 67° (ENE) 17:55:17 437.365/2234.400
RS-15 01 Jun 18:00:16 18:11:19 62° 301° (WNW) 18:23:03 29.354- 29.394
AO-7 01 Jun 18:07:54 18:13:53 22° 263° (W) 18:19:55 29.400- 29.500
KKS-1 01 Jun 18:12:04 18:15:26 22° 290° (WNW) 18:18:48 437.445
Cosmos 2504 01 Jun 18:13:29 18:20:42 84° 276° (W) 18:28:20 435.465 / 435.565
LilacSat-2 01 Jun 18:18:25 18:20:19 13° 70° (ENE) 18:22:14 437.200
ISS 01 Jun 18:23:15 18:24:02 11° 125° (SE) 18:24:48 145.825
NOAA 18 01 Jun 18:24:48 18:29:39 34° 70° (ENE) 18:34:30 137.9125
CUTE-I 01 Jun 18:25:29 18:29:51 27° 70° (ENE) 18:34:15 437.470
PCSat 01 Jun 18:30:19 18:35:09 32° 59° (ENE) 18:39:57 145.827
HORYU 2 01 Jun 18:30:43 18:34:17 24° 263° (W) 18:37:53 437.375
STARS 01 Jun 18:32:07 18:35:42 25° 289° (WNW) 18:39:16 437.465
NOAA 15 01 Jun 18:54:27 18:59:45 82° 77° (ENE) 19:05:05 137.62
PHONESAT 2.4 01 Jun 18:54:50 18:57:26 24° 143° (SE) 19:00:01 2401.200-2431.200
YUBILEINY 01 Jun 18:57:22 18:59:52 11° 293° (WNW) 19:02:22 435.215
CUBESAT XI-V 01 Jun 19:11:22 19:16:01 67° 284° (WNW) 19:20:38 437.345
Cubesat XI-IV 01 Jun 19:19:52 19:25:10 84° 257° (WSW) 19:30:31 437.490
GOMX 1 01 Jun 19:20:26 19:25:45 55° 75° (ENE) 19:30:58 467.674
HO-68 01 Jun 19:22:06 19:25:23 14° 60° (ENE) 19:28:40 435.675
BRITE-PL 01 Jun 19:24:36 19:30:12 65° 259° (W) 19:35:51 437.365/2234.400
O/OREOS (USA 219) 01 Jun 19:32:55 19:37:22 69° 71° (ENE) 19:41:48 437.305
STRAND 1 01 Jun 19:34:27 19:36:24 12° 93° (E) 19:38:20 437.568
DOVE 4 01 Jun 19:41:07 19:45:57 40° 74° (ENE) 19:50:35 437.250
BEESAT 3 01 Jun 19:45:56 19:49:11 24° 57° (ENE) 19:52:25 437.485
LilacSat-2 01 Jun 19:51:04 19:54:20 28° 262° (W) 19:57:36 437.200
ISS 01 Jun 19:57:00 20:00:07 42° 317° (NW) 20:03:15 145.825
CUTE 1.7 + AOD 2 01 Jun 19:57:10 19:58:37 12° 68° (ENE) 20:00:04 437.475
